Weaverville, CA

9:28 PM PDT on March 28, 2017 (GMT -0700)
Weaverville

Weather History for KO54 - March, 2013

Change the Weather History Date:

Wednesday, March 6, 2013

  Actual Average (KRDD) Record (KRDD)
Temperature  
Mean Temperature 36 °F -  
Max Temperature 44 °F 61 °F 83 °F (2015)
Min Temperature 28 °F 39 °F 31 °F (1996)
Degree Days  
Heating Degree Days 29    
Moisture  
Dew Point 33 °F    
Average Humidity 87    
Maximum Humidity 100    
Minimum Humidity 61    
Precipitation  
Precipitation 0.33 in - - ()
Sea Level Pressure  
Sea Level Pressure 29.83 in    
Wind  
Wind Speed 4 mph (SW)    
Max Wind Speed 9 mph    
Max Gust Speed 20 mph    
Visibility 8 miles    
Events      
Averages and records for this station are not official NWS values.
T = Trace of Precipitation, MM = Missing Value Source: NWS Daily Summary

Daily Weather History Graph

Daily Weather History Graph

Search for Another Location

Airport or City:

Trip Planner

Search our weather history database for the weather conditions in past years. The results will help you decide how hot, cold, wet, or windy it might be!

Date:

Astronomy

Mar. 06, 2013 Rise Set
Actual Time 6:37 AM PST 6:08 PM PST
Civil Twilight 6:09 AM PST 6:36 PM PST
Nautical Twilight 5:38 AM PST 7:08 PM PST
Astronomical Twilight 5:06 AM PST 7:39 PM PST
Moon 2:52 AM PST (3/6) 12:55 PM PST (3/6)
Length of Visible Light 12h 26m
Length of Day
11h 31m
Waning Crescent, 29% of the Moon is Illuminated
Mar 6
Waning Crescent
Mar 11
New
Mar 19
First Quarter
Mar 27
Full
Apr 2
Last Quarter

Hourly Weather History & Observations

Time (PST) Temp. Windchill Dew Point Humidity Pressure Visibility Wind Dir Wind Speed Gust Speed Precip Events Conditions
12:15 AM 37.4 °F 33.8 °F 35.6 °F 93% 29.62 in 4.0 mi NE 4.6 mph - 0.04 in   Overcast
12:35 AM 37.4 °F 33.8 °F 35.6 °F 93% 29.61 in 7.0 mi NE 4.6 mph - 0.05 in   Overcast
12:55 AM 37.4 °F - 35.6 °F 93% 29.62 in 6.0 mi Calm Calm - 0.07 in   Overcast
1:15 AM 37.4 °F 34.9 °F 35.6 °F 93% 29.63 in 5.0 mi South 3.5 mph - 0.04 in   Overcast
1:35 AM 37.4 °F 34.9 °F 35.6 °F 93% 29.64 in 4.0 mi WSW 3.5 mph - 0.14 in   Overcast
1:55 AM 35.6 °F - 33.8 °F 93% 29.63 in 4.0 mi Calm Calm - 0.15 in   Overcast
2:15 AM 35.6 °F - 33.8 °F 93% 29.63 in 9.0 mi Calm Calm - N/A   Mostly Cloudy
2:35 AM 35.6 °F - 33.8 °F 93% 29.63 in 9.0 mi Calm Calm - N/A   Overcast
2:55 AM 35.6 °F 31.7 °F 33.8 °F 93% 29.63 in 10.0 mi North 4.6 mph - N/A   Mostly Cloudy
3:15 AM 33.8 °F - 32.0 °F 93% 29.63 in 7.0 mi Calm Calm - N/A   Mostly Cloudy
3:35 AM 35.6 °F 30.7 °F 33.8 °F 93% 29.63 in 10.0 mi NNE 5.8 mph - N/A   Overcast
3:55 AM 35.6 °F - 33.8 °F 93% 29.63 in 10.0 mi Calm Calm - N/A   Overcast
4:15 AM 35.6 °F - 33.8 °F 93% 29.63 in 9.0 mi Calm Calm - N/A   Overcast
4:35 AM 35.6 °F 32.8 °F 35.6 °F 100% 29.63 in 5.0 mi NNW 3.5 mph - 0.01 in   Overcast
4:55 AM 35.6 °F - 35.6 °F 100% 29.64 in 5.0 mi Calm Calm - 0.03 in   Overcast
5:15 AM 35.6 °F 32.8 °F 35.6 °F 100% 29.64 in 7.0 mi NE 3.5 mph - 0.01 in   Overcast
5:35 AM 35.6 °F - 33.8 °F 93% 29.65 in 5.0 mi Calm Calm - 0.01 in   Overcast
5:55 AM 35.6 °F - 35.6 °F 100% 29.66 in 5.0 mi Calm Calm - 0.01 in   Overcast
6:15 AM 35.6 °F - 35.6 °F 100% 29.68 in 3.0 mi Calm Calm - 0.01 in   Overcast
6:35 AM 35.6 °F - 35.6 °F 100% 29.69 in 7.0 mi Calm Calm - 0.02 in   Overcast
6:55 AM 35.6 °F 31.7 °F 35.6 °F 100% 29.70 in 5.0 mi South 4.6 mph - 0.03 in   Mostly Cloudy
7:15 AM 35.6 °F 29.9 °F 33.8 °F 93% 29.72 in 10.0 mi SSW 6.9 mph - N/A   Mostly Cloudy
7:35 AM 37.4 °F 30.8 °F 33.8 °F 87% 29.74 in 10.0 mi SSW 9.2 mph - N/A   Mostly Cloudy
7:55 AM 35.6 °F 28.6 °F 32.0 °F 87% 29.76 in 8.0 mi SSW 9.2 mph - 0.01 in   Scattered Clouds
8:15 AM 35.6 °F 30.7 °F 33.8 °F 93% 29.78 in 9.0 mi SSW 5.8 mph - N/A   Scattered Clouds
8:35 AM 35.6 °F 29.9 °F 33.8 °F 93% 29.80 in 5.0 mi SSW 6.9 mph - 0.01 in   Partly Cloudy
8:55 AM 35.6 °F 29.9 °F 33.8 °F 93% 29.82 in 8.0 mi South 6.9 mph - 0.01 in   Scattered Clouds
9:15 AM 35.6 °F 30.7 °F 33.8 °F 93% 29.83 in 10.0 mi SSW 5.8 mph - N/A   Partly Cloudy
9:35 AM 37.4 °F 32.1 °F 35.6 °F 93% 29.84 in 10.0 mi SSW 6.9 mph - N/A   Scattered Clouds
9:55 AM 37.4 °F 32.1 °F 35.6 °F 93% 29.85 in 8.0 mi SSW 6.9 mph - N/A   Mostly Cloudy
10:15 AM 37.4 °F 31.4 °F 35.6 °F 93% 29.87 in 10.0 mi South 8.1 mph - N/A   Mostly Cloudy
10:55 AM 39.2 °F 34.2 °F 35.6 °F 87% 29.89 in 10.0 mi SW 6.9 mph - 0.01 in   Overcast
11:15 AM 39.2 °F 35.0 °F 32.0 °F 75% 29.90 in 10.0 mi SSW 5.8 mph - N/A   Mostly Cloudy
11:35 AM 39.2 °F 35.0 °F 35.6 °F 87% 29.91 in 10.0 mi South 5.8 mph - N/A   Mostly Cloudy
11:55 AM 41.0 °F 35.8 °F 35.6 °F 81% 29.91 in 10.0 mi South 8.1 mph - N/A   Overcast
12:15 PM 41.0 °F 36.4 °F 32.0 °F 70% 29.91 in 10.0 mi WSW 6.9 mph - N/A   Overcast
12:35 PM 41.0 °F 35.2 °F 33.8 °F 76% 29.92 in 10.0 mi SSW 9.2 mph 19.6 mph N/A   Overcast
12:55 PM 39.2 °F 35.9 °F 33.8 °F 81% 29.93 in 8.0 mi SSW 4.6 mph - N/A   Scattered Clouds
1:15 PM 37.4 °F 33.8 °F 35.6 °F 93% 29.94 in 4.0 mi West 4.6 mph - 0.01 in   Scattered Clouds
1:35 PM 39.2 °F 35.0 °F 35.6 °F 87% 29.94 in 9.0 mi WSW 5.8 mph - 0.01 in   Mostly Cloudy
1:55 PM 41.0 °F 35.2 °F 35.6 °F 81% 29.93 in 10.0 mi SSW 9.2 mph - 0.01 in   Mostly Cloudy
2:15 PM 42.8 °F 38.0 °F 35.6 °F 76% 29.93 in 10.0 mi NW 8.1 mph - N/A   Mostly Cloudy
2:35 PM 41.0 °F 36.4 °F 32.0 °F 70% 29.94 in 10.0 mi SW 6.9 mph - N/A   Mostly Cloudy
2:55 PM 42.8 °F 38.0 °F 33.8 °F 70% 29.94 in 10.0 mi WSW 8.1 mph - N/A   Scattered Clouds
3:15 PM 44.6 °F 39.7 °F 32.0 °F 61% 29.94 in 10.0 mi SSW 9.2 mph - N/A   Scattered Clouds
3:35 PM 42.8 °F 40.1 °F 32.0 °F 66% 29.94 in 10.0 mi WSW 4.6 mph - N/A   Mostly Cloudy
3:55 PM 41.0 °F 35.8 °F 33.8 °F 76% 29.94 in 7.0 mi SW 8.1 mph - N/A   Overcast
4:15 PM 42.8 °F 38.0 °F 32.0 °F 66% 29.94 in 10.0 mi SW 8.1 mph - N/A   Overcast
4:35 PM 42.8 °F 38.6 °F 32.0 °F 66% 29.93 in 10.0 mi SSW 6.9 mph - N/A   Overcast
4:55 PM 42.8 °F 38.6 °F 32.0 °F 66% 29.94 in 10.0 mi SW 6.9 mph - N/A   Overcast
5:15 PM 42.8 °F 38.0 °F 32.0 °F 66% 29.94 in 10.0 mi SW 8.1 mph - N/A   Mostly Cloudy
5:35 PM 41.0 °F 39.0 °F 32.0 °F 70% 29.94 in 10.0 mi South 3.5 mph - N/A   Mostly Cloudy
5:55 PM 41.0 °F 39.0 °F 32.0 °F 70% 29.95 in 10.0 mi SSW 3.5 mph - N/A   Overcast
6:15 PM 39.2 °F 37.0 °F 32.0 °F 75% 29.95 in 10.0 mi WSW 3.5 mph - N/A   Overcast
6:35 PM 37.4 °F 32.8 °F 32.0 °F 81% 29.95 in 10.0 mi West 5.8 mph - N/A   Overcast
6:55 PM 39.2 °F 35.9 °F 32.0 °F 75% 29.95 in 10.0 mi WNW 4.6 mph - N/A   Overcast
7:15 PM 37.4 °F 34.9 °F 32.0 °F 81% 29.95 in 10.0 mi East 3.5 mph - N/A   Overcast
7:35 PM 35.6 °F - 32.0 °F 87% 29.96 in 10.0 mi Calm Calm - N/A   Overcast
7:55 PM 33.8 °F - 32.0 °F 93% 29.95 in 10.0 mi Calm Calm - N/A   Overcast
8:15 PM 33.8 °F - 32.0 °F 93% 29.96 in 10.0 mi Calm Calm - N/A   Overcast
8:35 PM 35.6 °F 32.8 °F 32.0 °F 87% 29.96 in 10.0 mi North 3.5 mph - N/A   Overcast
8:55 PM 33.8 °F - 32.0 °F 93% 29.97 in 10.0 mi Calm Calm - N/A   Overcast
9:15 PM 33.8 °F - 32.0 °F 93% 29.97 in 10.0 mi Calm Calm - N/A   Overcast
9:35 PM 32.0 °F - 32.0 °F 100% 29.97 in 10.0 mi Calm Calm - N/A   Overcast
9:55 PM 32.0 °F - 32.0 °F 100% 29.98 in 9.0 mi Calm Calm - N/A   Overcast
10:15 PM 32.0 °F - 30.2 °F 93% 29.98 in 6.0 mi Calm Calm - N/A   Mostly Cloudy
10:35 PM 32.0 °F - 30.2 °F 93% 29.98 in 6.0 mi Calm Calm - N/A   Scattered Clouds
11:15 PM 30.2 °F - 28.4 °F 93% 29.97 in 5.0 mi Calm Calm - N/A   Mostly Cloudy
11:35 PM 28.4 °F - 28.4 °F 100% 29.96 in 5.0 mi Calm Calm - N/A   Mostly Cloudy
11:55 PM 30.2 °F - 28.4 °F 93% 29.97 in 10.0 mi Calm Calm - N/A   Scattered Clouds